Time,TemperatureF,DewpointF,PressureIn,WindDirection,WindDirectionDegrees,WindSpeedMPH,WindSpeedGustMPH,Humidity,HourlyPrecipIn,Conditions,Clouds,dailyrainin,SoftwareType,DateUTC
2013-08-09 00:01:00,68.5,67.9,30.01,WNW,294,0.0,1.0,98,0.00,,---,0.06,VWS V14.00,2013-08-09 04:01:00,
2013-08-09 00:06:00,68.4,67.8,30.01,WNW,294,0.0,1.0,98,0.00,,---,0.06,VWS V14.00,2013-08-09 04:06:00,
2013-08-09 00:11:00,68.4,67.8,30.00,WNW,294,0.0,0.0,98,0.00,,---,0.00,VWS V14.00,2013-08-09 04:11:00,
2013-08-09 00:16:00,68.2,67.6,30.00,WNW,294,0.0,0.0,98,0.00,,---,0.00,VWS V14.00,2013-08-09 04:16:00,
2013-08-09 00:21:00,68.1,67.5,30.00,WNW,294,0.0,0.0,98,0.00,,---,0.00,VWS V14.00,2013-08-09 04:21:00,
2013-08-09 00:26:00,68.0,67.4,30.00,WNW,294,0.0,0.0,98,0.00,,---,0.00,VWS V14.00,2013-08-09 04:26:00,
2013-08-09 00:31:00,67.9,67.3,30.00,WNW,294,0.0,0.0,98,0.00,,---,0.00,VWS V14.00,2013-08-09 04:31:00,
2013-08-09 00:36:00,67.8,67.2,30.00,WNW,294,0.0,0.0,98,0.00,,---,0.00,VWS V14.00,2013-08-09 04:36:00,
2013-08-09 00:41:00,67.9,67.3,30.00,WNW,294,0.0,0.0,98,0.00,,---,0.00,VWS V14.00,2013-08-09 04:41:00,
2013-08-09 00:46:00,68.0,67.4,29.99,WNW,294,0.0,0.0,98,0.00,,---,0.00,VWS V14.00,2013-08-09 04:46:00,
2013-08-09 00:51:00,68.2,67.6,29.99,WNW,294,0.0,0.0,98,0.00,,---,0.00,VWS V14.00,2013-08-09 04:51:00,
2013-08-09 00:56:00,68.3,67.7,29.99,WNW,294,0.0,0.0,98,0.00,,---,0.00,VWS V14.00,2013-08-09 04:56:00,
2013-08-09 01:01:00,68.4,67.8,29.99,WNW,294,0.0,0.0,98,0.00,,---,0.00,VWS V14.00,2013-08-09 05:01:00,
2013-08-09 01:06:00,68.5,67.9,29.99,WNW,294,0.0,1.0,98,0.00,,---,0.00,VWS V14.00,2013-08-09 05:06:00,
2013-08-09 01:11:00,68.6,68.3,29.99,WNW,294,0.0,0.0,99,0.00,,---,0.00,VWS V14.00,2013-08-09 05:11:00,
2013-08-09 01:16:00,68.6,68.3,29.99,WNW,294,0.0,0.0,99,0.00,,---,0.00,VWS V14.00,2013-08-09 05:16:00,
2013-08-09 01:21:00,68.6,68.3,29.99,WNW,294,0.0,0.0,99,0.00,,---,0.00,VWS V14.00,2013-08-09 05:21:00,
2013-08-09 01:26:00,68.7,68.4,29.99,WNW,294,0.0,0.0,99,0.00,,---,0.00,VWS V14.00,2013-08-09 05:26:00,
2013-08-09 01:31:00,68.7,68.4,29.98,WNW,294,0.0,0.0,99,0.00,,---,0.00,VWS V14.00,2013-08-09 05:31:00,
2013-08-09 01:36:00,68.7,68.4,29.98,WNW,294,0.0,0.0,99,0.00,,---,0.00,VWS V14.00,2013-08-09 05:36:00,
2013-08-09 01:41:00,68.8,68.5,29.98,WNW,294,0.0,0.0,99,0.00,,---,0.00,VWS V14.00,2013-08-09 05:41:00,
2013-08-09 01:46:00,68.8,68.5,29.98,WNW,294,0.0,1.0,99,0.00,,---,0.00,VWS V14.00,2013-08-09 05:46:00,
2013-08-09 01:51:00,68.8,68.5,29.98,WNW,294,0.0,1.0,99,0.00,,---,0.00,VWS V14.00,2013-08-09 05:51:00,
2013-08-09 01:56:00,68.7,68.4,29.98,WNW,294,0.0,1.0,99,0.00,,---,0.00,VWS V14.00,2013-08-09 05:56:00,
2013-08-09 02:01:00,68.5,68.2,29.98,WNW,294,0.0,1.0,99,0.00,,---,0.00,VWS V14.00,2013-08-09 06:01:00,
2013-08-09 02:06:00,68.4,67.8,29.99,WNW,294,0.0,1.0,98,0.00,,---,0.00,VWS V14.00,2013-08-09 06:06:00,
2013-08-09 02:11:00,68.3,68.0,29.99,WNW,294,0.0,0.0,99,0.00,,---,0.00,VWS V14.00,2013-08-09 06:11:00,
2013-08-09 02:16:00,68.3,68.0,29.99,WNW,294,0.0,0.0,99,0.00,,---,0.00,VWS V14.00,2013-08-09 06:16:00,
2013-08-09 02:21:00,68.4,68.1,29.99,WNW,294,0.0,0.0,99,0.00,,---,0.00,VWS V14.00,2013-08-09 06:21:00,
2013-08-09 02:26:00,68.4,68.1,29.99,WNW,294,0.0,0.0,99,0.00,,---,0.00,VWS V14.00,2013-08-09 06:26:00,
2013-08-09 02:31:00,68.4,68.1,29.99,WNW,294,0.0,0.0,99,0.00,,---,0.00,VWS V14.00,2013-08-09 06:31:00,
2013-08-09 02:36:00,68.3,68.0,30.00,WNW,294,0.0,0.0,99,0.00,,---,0.00,VWS V14.00,2013-08-09 06:36:00,
2013-08-09 02:41:00,68.3,68.0,29.99,WNW,294,0.0,0.0,99,0.00,,---,0.00,VWS V14.00,2013-08-09 06:41:00,
2013-08-09 02:46:00,68.2,67.9,29.99,WNW,294,0.0,0.0,99,0.00,,---,0.00,VWS V14.00,2013-08-09 06:46:00,
2013-08-09 02:51:00,68.2,67.9,30.00,WNW,294,0.0,0.0,99,0.00,,---,0.00,VWS V14.00,2013-08-09 06:51:00,
2013-08-09 02:56:00,68.2,67.9,29.99,WNW,294,0.0,0.0,99,0.00,,---,0.00,VWS V14.00,2013-08-09 06:56:00,
2013-08-09 03:01:00,68.1,67.8,29.99,WNW,294,0.0,0.0,99,0.00,,---,0.00,VWS V14.00,2013-08-09 07:01:00,
2013-08-09 03:06:00,68.1,67.8,29.99,WNW,294,0.0,0.0,99,0.00,,---,0.00,VWS V14.00,2013-08-09 07:06:00,
2013-08-09 03:11:00,68.1,67.8,30.00,WNW,294,0.0,0.0,99,0.00,,---,0.00,VWS V14.00,2013-08-09 07:11:00,
2013-08-09 03:16:00,68.1,67.8,30.00,WNW,294,0.0,1.0,99,0.00,,---,0.00,VWS V14.00,2013-08-09 07:16:00,
2013-08-09 03:21:00,68.2,67.9,30.00,NNW,348,0.0,2.0,99,0.00,,---,0.00,VWS V14.00,2013-08-09 07:21:00,
2013-08-09 03:26:00,68.3,68.0,30.00,NNW,348,0.0,2.0,99,0.00,,---,0.00,VWS V14.00,2013-08-09 07:26:00,
2013-08-09 03:31:00,68.4,68.1,30.00,NNW,348,0.0,2.0,99,0.00,,---,0.00,VWS V14.00,2013-08-09 07:31:00,
2013-08-09 03:36:00,68.4,68.1,30.00,NNW,348,0.0,2.0,99,0.00,,---,0.00,VWS V14.00,2013-08-09 07:36:00,
2013-08-09 03:41:00,68.4,68.1,30.00,NNW,348,0.0,0.0,99,0.00,,---,0.00,VWS V14.00,2013-08-09 07:41:00,
2013-08-09 03:46:00,68.4,68.1,30.00,NNW,348,0.0,0.0,99,0.00,,---,0.00,VWS V14.00,2013-08-09 07:46:00,
2013-08-09 03:51:00,68.4,68.1,30.00,NNW,348,0.0,0.0,99,0.00,,---,0.00,VWS V14.00,2013-08-09 07:51:00,
2013-08-09 03:56:00,68.3,68.0,30.00,NNW,348,0.0,0.0,99,0.00,,---,0.00,VWS V14.00,2013-08-09 07:56:00,
2013-08-09 04:01:00,68.3,68.0,30.00,NNW,348,0.0,0.0,99,0.00,,---,0.00,VWS V14.00,2013-08-09 08:01:00,
2013-08-09 04:06:00,68.3,68.0,30.01,NNW,348,0.0,0.0,99,0.00,,---,0.00,VWS V14.00,2013-08-09 08:06:00,
2013-08-09 04:11:00,68.3,68.0,30.00,NNW,348,0.0,0.0,99,0.00,,---,0.00,VWS V14.00,2013-08-09 08:11:00,
2013-08-09 04:16:00,68.3,68.0,30.01,NNW,348,0.0,0.0,99,0.00,,---,0.00,VWS V14.00,2013-08-09 08:16:00,
2013-08-09 04:21:00,68.2,67.9,30.01,NNW,348,0.0,0.0,99,0.00,,---,0.00,VWS V14.00,2013-08-09 08:21:00,
2013-08-09 04:26:00,68.2,67.9,30.01,NNW,348,0.0,0.0,99,0.00,,---,0.00,VWS V14.00,2013-08-09 08:26:00,
2013-08-09 04:31:00,68.1,67.8,30.01,NNW,348,0.0,0.0,99,0.00,,---,0.00,VWS V14.00,2013-08-09 08:31:00,
2013-08-09 04:36:00,68.2,67.9,30.01,NNW,348,0.0,0.0,99,0.00,,---,0.00,VWS V14.00,2013-08-09 08:36:00,
2013-08-09 04:41:00,68.2,67.9,30.01,NNW,348,0.0,0.0,99,0.00,,---,0.00,VWS V14.00,2013-08-09 08:41:00,
2013-08-09 04:46:00,68.1,67.8,30.01,NNW,348,0.0,0.0,99,0.00,,---,0.00,VWS V14.00,2013-08-09 08:46:00,
2013-08-09 04:51:00,68.2,67.9,30.01,NNW,348,0.0,0.0,99,0.00,,---,0.00,VWS V14.00,2013-08-09 08:51:00,
2013-08-09 04:56:00,68.1,67.8,30.01,NNW,348,0.0,0.0,99,0.00,,---,0.00,VWS V14.00,2013-08-09 08:56:00,
2013-08-09 05:01:00,68.2,67.9,30.01,NNW,348,0.0,0.0,99,0.00,,---,0.00,VWS V14.00,2013-08-09 09:01:00,
2013-08-09 05:06:00,68.2,67.9,30.01,NNW,348,0.0,0.0,99,0.00,,---,0.00,VWS V14.00,2013-08-09 09:06:00,
2013-08-09 05:11:00,68.2,67.9,30.01,NNW,348,0.0,0.0,99,0.00,,---,0.00,VWS V14.00,2013-08-09 09:11:00,
2013-08-09 05:16:00,68.2,67.9,30.01,NNW,348,0.0,0.0,99,0.00,,---,0.00,VWS V14.00,2013-08-09 09:16:00,
2013-08-09 05:21:00,68.3,68.0,30.01,NNW,348,0.0,0.0,99,0.00,,---,0.00,VWS V14.00,2013-08-09 09:21:00,
2013-08-09 05:26:00,68.3,68.0,30.01,North,350,0.0,3.0,99,0.00,,---,0.00,VWS V14.00,2013-08-09 09:26:00,
2013-08-09 05:31:00,68.4,68.1,30.01,North,349,0.0,3.0,99,0.00,,---,0.00,VWS V14.00,2013-08-09 09:31:00,
2013-08-09 05:36:00,68.4,68.1,30.02,North,349,0.0,3.0,99,0.00,,---,0.00,VWS V14.00,2013-08-09 09:36:00,
2013-08-09 05:41:00,68.4,68.1,30.01,North,349,3.0,3.0,99,0.00,,---,0.00,VWS V14.00,2013-08-09 09:41:00,
2013-08-09 05:46:00,68.5,68.2,30.01,North,349,0.0,3.0,99,0.00,,---,0.00,VWS V14.00,2013-08-09 09:46:00,
2013-08-09 05:51:00,68.5,68.2,30.01,North,349,0.0,3.0,99,0.00,,---,0.00,VWS V14.00,2013-08-09 09:51:00,
2013-08-09 05:56:00,68.5,68.2,30.01,North,349,0.0,3.0,99,0.00,,---,0.00,VWS V14.00,2013-08-09 09:56:00,
2013-08-09 06:01:00,68.5,68.2,30.01,North,349,0.0,3.0,99,0.00,,---,0.00,VWS V14.00,2013-08-09 10:01:00,
2013-08-09 06:06:00,68.5,68.2,30.01,North,349,0.0,3.0,99,0.00,,---,0.00,VWS V14.00,2013-08-09 10:06:00,
2013-08-09 06:11:00,68.5,68.2,30.02,North,349,0.0,0.0,99,0.00,,---,0.00,VWS V14.00,2013-08-09 10:11:00,
2013-08-09 06:16:00,68.4,68.1,30.02,North,349,0.0,0.0,99,0.00,,---,0.00,VWS V14.00,2013-08-09 10:16:00,
2013-08-09 06:21:00,68.4,68.1,30.02,North,349,0.0,0.0,99,0.00,,---,0.00,VWS V14.00,2013-08-09 10:21:00,
2013-08-09 06:26:00,68.3,68.0,30.02,North,349,0.0,0.0,99,0.00,,---,0.00,VWS V14.00,2013-08-09 10:26:00,
2013-08-09 06:31:00,68.3,68.0,30.02,North,349,0.0,0.0,99,0.00,,---,0.00,VWS V14.00,2013-08-09 10:31:00,
2013-08-09 06:36:00,68.3,68.0,30.03,North,349,0.0,0.0,99,0.00,,---,0.00,VWS V14.00,2013-08-09 10:36:00,
2013-08-09 06:41:00,68.3,68.0,30.03,North,349,0.0,0.0,99,0.00,,---,0.00,VWS V14.00,2013-08-09 10:41:00,
2013-08-09 06:46:00,68.4,68.1,30.03,North,349,0.0,1.0,99,0.00,,---,0.00,VWS V14.00,2013-08-09 10:46:00,
2013-08-09 06:51:00,68.4,68.1,30.03,North,349,0.0,1.0,99,0.00,,---,0.00,VWS V14.00,2013-08-09 10:51:00,
2013-08-09 06:56:00,68.5,68.2,30.03,North,349,0.0,1.0,99,0.00,,---,0.00,VWS V14.00,2013-08-09 10:56:00,
2013-08-09 07:01:00,68.5,68.2,30.03,North,349,0.0,1.0,99,0.00,,---,0.00,VWS V14.00,2013-08-09 11:01:00,
2013-08-09 07:06:00,68.5,68.2,30.03,North,349,0.0,1.0,99,0.00,,---,0.00,VWS V14.00,2013-08-09 11:06:00,
2013-08-09 07:11:00,68.5,68.2,30.04,North,349,0.0,0.0,99,0.00,,---,0.00,VWS V14.00,2013-08-09 11:11:00,
2013-08-09 07:16:00,68.5,68.2,30.04,North,349,0.0,0.0,99,0.00,,---,0.00,VWS V14.00,2013-08-09 11:16:00,
2013-08-09 07:21:00,68.4,68.1,30.04,North,349,0.0,0.0,99,0.00,,---,0.00,VWS V14.00,2013-08-09 11:21:00,
2013-08-09 07:26:00,68.4,68.1,30.04,North,349,0.0,0.0,99,0.00,,---,0.00,VWS V14.00,2013-08-09 11:26:00,
2013-08-09 07:31:00,68.4,68.1,30.04,North,349,0.0,0.0,99,0.00,,---,0.00,VWS V14.00,2013-08-09 11:31:00,
2013-08-09 07:36:00,68.5,68.2,30.04,North,349,0.0,0.0,99,0.00,,---,0.00,VWS V14.00,2013-08-09 11:36:00,
2013-08-09 07:41:00,68.5,68.2,30.04,North,349,0.0,0.0,99,0.00,,---,0.00,VWS V14.00,2013-08-09 11:41:00,
2013-08-09 07:46:00,68.5,68.2,30.04,North,349,0.0,0.0,99,0.00,,---,0.00,VWS V14.00,2013-08-09 11:46:00,
2013-08-09 07:51:00,68.6,68.6,30.04,North,349,0.0,0.0,100,0.00,,---,0.00,VWS V14.00,2013-08-09 11:51:00,
2013-08-09 07:56:00,68.7,68.7,30.04,North,349,0.0,0.0,100,0.00,,---,0.00,VWS V14.00,2013-08-09 11:56:00,
2013-08-09 08:01:00,68.9,68.9,30.04,SW,226,0.0,0.0,100,0.00,,---,0.00,VWS V14.00,2013-08-09 12:01:00,
2013-08-09 08:06:00,69.0,69.0,30.04,SW,226,0.0,0.0,100,0.00,,---,0.00,VWS V14.00,2013-08-09 12:06:00,
2013-08-09 08:11:00,69.1,68.8,30.05,SW,226,0.0,0.0,99,0.00,,---,0.00,VWS V14.00,2013-08-09 12:11:00,
2013-08-09 08:16:00,69.2,68.9,30.05,SW,226,0.0,0.0,99,0.00,,---,0.00,VWS V14.00,2013-08-09 12:16:00,
2013-08-09 08:21:00,69.4,69.4,30.05,SW,226,0.0,0.0,100,0.00,,---,0.00,VWS V14.00,2013-08-09 12:21:00,
2013-08-09 08:26:00,69.4,69.4,30.05,West,278,0.0,1.0,100,0.00,,---,0.00,VWS V14.00,2013-08-09 12:26:00,
2013-08-09 08:31:00,69.4,69.4,30.06,West,280,0.0,3.0,100,0.00,,---,0.00,VWS V14.00,2013-08-09 12:31:00,
2013-08-09 08:36:00,69.3,69.3,30.06,West,280,0.0,3.0,100,0.00,,---,0.00,VWS V14.00,2013-08-09 12:36:00,
2013-08-09 08:41:00,69.4,69.4,30.06,West,280,0.0,0.0,100,0.00,,---,0.00,VWS V14.00,2013-08-09 12:41:00,
2013-08-09 08:46:00,69.3,69.3,30.06,West,280,0.0,1.0,100,0.00,,---,0.00,VWS V14.00,2013-08-09 12:46:00,
2013-08-09 08:51:00,69.4,69.4,30.06,West,280,0.0,1.0,100,0.00,,---,0.00,VWS V14.00,2013-08-09 12:51:00,
2013-08-09 08:56:00,69.5,69.5,30.06,West,280,0.0,1.0,100,0.00,,---,0.00,VWS V14.00,2013-08-09 12:56:00,
2013-08-09 09:01:00,69.5,69.5,30.06,West,280,0.0,1.0,100,0.00,,---,0.00,VWS V14.00,2013-08-09 13:01:00,
2013-08-09 09:05:00,69.6,69.6,30.06,West,280,0.0,1.0,100,0.00,,---,0.00,VWS V14.00,2013-08-09 13:05:00,
2013-08-09 09:10:00,69.6,69.3,30.07,West,280,0.0,0.0,99,0.00,,---,0.00,VWS V14.00,2013-08-09 13:10:00,
2013-08-09 09:15:00,69.7,69.4,30.07,West,280,0.0,0.0,99,0.00,,---,0.00,VWS V14.00,2013-08-09 13:15:00,
2013-08-09 09:20:00,69.8,69.5,30.07,West,280,0.0,0.0,99,0.00,,---,0.00,VWS V14.00,2013-08-09 13:20:00,
2013-08-09 09:25:00,69.9,69.9,30.07,West,280,0.0,0.0,100,0.00,,---,0.00,VWS V14.00,2013-08-09 13:25:00,
2013-08-09 09:30:00,70.1,70.1,30.08,West,280,0.0,1.0,100,0.00,,---,0.00,VWS V14.00,2013-08-09 13:30:00,
2013-08-09 09:35:00,70.3,70.3,30.07,West,280,0.0,1.0,100,0.00,,---,0.00,VWS V14.00,2013-08-09 13:35:00,
2013-08-09 09:40:00,70.5,70.5,30.07,West,280,0.0,0.0,100,0.00,,---,0.00,VWS V14.00,2013-08-09 13:40:00,
2013-08-09 09:45:00,70.4,70.1,30.07,West,280,0.0,1.0,99,0.00,,---,0.00,VWS V14.00,2013-08-09 13:45:00,
2013-08-09 09:50:00,70.5,70.2,30.07,West,280,0.0,1.0,99,0.00,,---,0.00,VWS V14.00,2013-08-09 13:50:00,
2013-08-09 09:55:00,70.5,70.2,30.07,West,280,0.0,1.0,99,0.00,,---,0.00,VWS V14.00,2013-08-09 13:55:00,
2013-08-09 10:00:00,70.6,70.6,30.07,West,280,0.0,1.0,100,0.00,,---,0.00,VWS V14.00,2013-08-09 14:00:00,
2013-08-09 10:05:00,70.6,70.6,30.07,West,280,0.0,1.0,100,0.00,,---,0.00,VWS V14.00,2013-08-09 14:05:00,
2013-08-09 10:10:00,70.6,70.3,30.07,West,280,0.0,0.0,99,0.01,,---,0.01,VWS V14.00,2013-08-09 14:10:00,
2013-08-09 10:15:00,70.6,70.3,30.07,West,280,0.0,0.0,99,0.01,,---,0.01,VWS V14.00,2013-08-09 14:15:00,
2013-08-09 10:20:00,70.6,70.3,30.07,West,280,0.0,0.0,99,0.01,,---,0.01,VWS V14.00,2013-08-09 14:20:00,
2013-08-09 10:25:00,70.6,70.3,30.07,West,280,0.0,0.0,99,0.01,,---,0.01,VWS V14.00,2013-08-09 14:25:00,
2013-08-09 10:30:00,70.7,70.4,30.07,West,280,0.0,0.0,99,0.01,,---,0.01,VWS V14.00,2013-08-09 14:30:00,
2013-08-09 10:35:00,70.8,70.5,30.07,West,280,0.0,0.0,99,0.02,,---,0.02,VWS V14.00,2013-08-09 14:35:00,
2013-08-09 10:40:00,71.0,70.7,30.07,West,280,0.0,1.0,99,0.05,,---,0.05,VWS V14.00,2013-08-09 14:40:00,
2013-08-09 10:45:00,71.2,70.9,30.07,West,280,0.0,1.0,99,0.05,,---,0.05,VWS V14.00,2013-08-09 14:45:00,
2013-08-09 10:50:00,71.2,70.9,30.07,West,280,0.0,1.0,99,0.05,,---,0.05,VWS V14.00,2013-08-09 14:50:00,
2013-08-09 10:55:00,71.6,71.3,30.07,West,280,0.0,1.0,99,0.05,,---,0.05,VWS V14.00,2013-08-09 14:55:00,
2013-08-09 11:00:00,72.2,72.2,30.07,West,280,0.0,1.0,100,0.05,,---,0.05,VWS V14.00,2013-08-09 15:00:00,
2013-08-09 11:05:00,72.9,72.9,30.06,West,280,0.0,1.0,100,0.05,,---,0.05,VWS V14.00,2013-08-09 15:05:00,
2013-08-09 11:10:00,73.2,73.2,30.07,SSW,207,0.0,1.0,100,0.04,,---,0.05,VWS V14.00,2013-08-09 15:10:00,
2013-08-09 11:15:00,74.1,74.1,30.06,SSW,203,0.0,1.0,100,0.04,,---,0.05,VWS V14.00,2013-08-09 15:15:00,
2013-08-09 11:20:00,74.7,74.7,30.07,SSW,203,0.0,1.0,100,0.04,,---,0.05,VWS V14.00,2013-08-09 15:20:00,
2013-08-09 11:25:00,75.6,75.6,30.06,SSW,203,0.0,1.0,100,0.04,,---,0.05,VWS V14.00,2013-08-09 15:25:00,
2013-08-09 11:30:00,76.2,76.2,30.05,SSW,203,0.0,1.0,100,0.04,,---,0.05,VWS V14.00,2013-08-09 15:30:00,
2013-08-09 11:35:00,77.0,76.7,30.05,SSW,202,0.0,1.0,99,0.04,,---,0.05,VWS V14.00,2013-08-09 15:35:00,
2013-08-09 11:40:00,77.5,76.9,30.05,East,96,0.0,2.0,98,0.02,,---,0.05,VWS V14.00,2013-08-09 15:40:00,
2013-08-09 11:45:00,77.7,76.2,30.04,East,96,0.0,2.0,95,0.02,,---,0.05,VWS V14.00,2013-08-09 15:45:00,
2013-08-09 11:50:00,78.2,76.3,30.05,SE,125,0.0,2.0,94,0.02,,---,0.05,VWS V14.00,2013-08-09 15:50:00,
2013-08-09 11:55:00,78.7,76.8,30.04,SE,126,0.0,2.0,94,0.02,,---,0.05,VWS V14.00,2013-08-09 15:55:00,
2013-08-09 12:00:00,79.1,76.2,30.04,SE,126,0.0,2.0,91,0.02,,---,0.05,VWS V14.00,2013-08-09 16:00:00,
2013-08-09 12:05:00,79.7,76.8,30.03,SE,125,0.0,2.0,91,0.02,,---,0.05,VWS V14.00,2013-08-09 16:05:00,
2013-08-09 12:10:00,80.0,76.5,30.04,NE,52,0.0,1.0,89,0.00,,---,0.05,VWS V14.00,2013-08-09 16:10:00,
2013-08-09 12:15:00,80.6,76.7,30.03,East,79,0.0,3.0,88,0.00,,---,0.05,VWS V14.00,2013-08-09 16:15:00,
2013-08-09 12:20:00,81.1,76.9,30.02,ESE,121,0.0,3.0,87,0.00,,---,0.05,VWS V14.00,2013-08-09 16:20:00,
2013-08-09 12:25:00,81.3,75.7,30.02,ESE,109,0.0,3.0,83,0.00,,---,0.05,VWS V14.00,2013-08-09 16:25:00,
2013-08-09 12:30:00,81.8,76.8,30.02,ESE,117,0.0,3.0,85,0.00,,---,0.05,VWS V14.00,2013-08-09 16:30:00,
2013-08-09 12:35:00,81.6,73.7,30.02,SE,124,0.0,3.0,77,0.00,,---,0.05,VWS V14.00,2013-08-09 16:35:00,
2013-08-09 12:40:00,82.0,76.0,30.02,SE,124,0.0,1.0,82,0.00,,---,0.05,VWS V14.00,2013-08-09 16:40:00,
2013-08-09 12:45:00,82.3,75.9,30.02,East,80,0.0,1.0,81,0.00,,---,0.05,VWS V14.00,2013-08-09 16:45:00,
2013-08-09 12:50:00,82.7,75.5,30.01,East,89,0.0,1.0,79,0.00,,---,0.05,VWS V14.00,2013-08-09 16:50:00,
2013-08-09 12:55:00,82.7,75.9,30.01,ESE,114,0.0,1.0,80,0.00,,---,0.05,VWS V14.00,2013-08-09 16:55:00,
2013-08-09 13:00:00,82.4,75.6,30.02,NNW,344,0.0,3.0,80,0.01,,---,0.06,VWS V14.00,2013-08-09 17:00:00,
2013-08-09 13:05:00,82.2,75.8,30.01,East,87,0.0,3.0,81,0.01,,---,0.06,VWS V14.00,2013-08-09 17:05:00,
2013-08-09 13:10:00,81.6,74.5,30.01,WNW,294,0.0,2.0,79,0.01,,---,0.06,VWS V14.00,2013-08-09 17:10:00,
2013-08-09 13:15:00,81.2,74.4,30.02,ENE,68,0.0,2.0,80,0.01,,---,0.06,VWS V14.00,2013-08-09 17:15:00,
2013-08-09 13:20:00,81.1,75.1,30.01,ENE,63,0.0,2.0,82,0.01,,---,0.06,VWS V14.00,2013-08-09 17:20:00,
2013-08-09 13:25:00,81.2,75.2,30.01,ENE,61,0.0,2.0,82,0.01,,---,0.06,VWS V14.00,2013-08-09 17:25:00,
2013-08-09 13:30:00,81.3,74.9,30.01,ENE,63,0.0,2.0,81,0.01,,---,0.06,VWS V14.00,2013-08-09 17:30:00,
2013-08-09 13:35:00,81.3,74.9,30.01,ENE,64,0.0,2.0,81,0.01,,---,0.06,VWS V14.00,2013-08-09 17:35:00,
2013-08-09 13:40:00,81.3,74.5,30.01,ENE,64,0.0,0.0,80,0.01,,---,0.06,VWS V14.00,2013-08-09 17:40:00,
2013-08-09 13:45:00,81.3,74.5,30.01,ENE,64,0.0,0.0,80,0.01,,---,0.06,VWS V14.00,2013-08-09 17:45:00,
2013-08-09 13:50:00,81.4,75.0,30.00,ENE,64,0.0,0.0,81,0.01,,---,0.06,VWS V14.00,2013-08-09 17:50:00,
2013-08-09 13:55:00,81.7,76.4,30.00,ENE,64,0.0,0.0,84,0.01,,---,0.06,VWS V14.00,2013-08-09 17:55:00,
2013-08-09 14:00:00,82.1,76.1,30.00,ENE,63,0.0,1.0,82,0.01,,---,0.06,VWS V14.00,2013-08-09 18:00:00,
2013-08-09 14:05:00,82.4,76.4,30.00,ENE,64,0.0,1.0,82,0.01,,---,0.06,VWS V14.00,2013-08-09 18:05:00,
2013-08-09 14:10:00,82.8,77.1,30.00,ENE,64,0.0,0.0,83,0.00,,---,0.06,VWS V14.00,2013-08-09 18:10:00,
2013-08-09 14:15:00,83.2,76.0,30.00,ENE,59,0.0,6.0,79,0.00,,---,0.06,VWS V14.00,2013-08-09 18:15:00,
2013-08-09 14:20:00,83.5,76.7,29.99,SSE,168,0.0,6.0,80,0.00,,---,0.06,VWS V14.00,2013-08-09 18:20:00,
2013-08-09 14:25:00,83.5,75.1,29.99,South,169,0.0,6.0,76,0.00,,---,0.06,VWS V14.00,2013-08-09 18:25:00,
2013-08-09 14:30:00,83.6,76.0,29.99,SSE,168,0.0,6.0,78,0.00,,---,0.06,VWS V14.00,2013-08-09 18:30:00,
2013-08-09 14:35:00,83.7,76.1,29.99,South,169,0.0,6.0,78,0.00,,---,0.06,VWS V14.00,2013-08-09 18:35:00,
2013-08-09 14:40:00,83.6,76.4,30.00,South,169,0.0,0.0,79,0.00,,---,0.06,VWS V14.00,2013-08-09 18:40:00,
2013-08-09 14:45:00,83.6,76.8,29.99,SSE,168,0.0,0.0,80,0.00,,---,0.06,VWS V14.00,2013-08-09 18:45:00,
2013-08-09 14:50:00,83.9,76.3,29.99,SSE,168,0.0,2.0,78,0.00,,---,0.06,VWS V14.00,2013-08-09 18:50:00,
2013-08-09 14:55:00,84.4,77.2,29.99,SSE,157,0.0,2.0,79,0.00,,---,0.06,VWS V14.00,2013-08-09 18:55:00,
2013-08-09 15:00:00,84.6,77.0,29.98,SSE,157,0.0,2.0,78,0.00,,---,0.06,VWS V14.00,2013-08-09 19:00:00,
2013-08-09 15:05:00,84.4,75.6,29.99,SSE,149,1.0,7.0,75,0.00,,---,0.06,VWS V14.00,2013-08-09 19:05:00,
2013-08-09 15:10:00,83.6,74.0,29.99,South,179,7.0,7.0,73,0.00,,---,0.06,VWS V14.00,2013-08-09 19:10:00,
2013-08-09 15:15:00,82.7,73.2,29.99,WSW,257,0.0,7.0,73,0.00,,---,0.06,VWS V14.00,2013-08-09 19:15:00,
2013-08-09 15:20:00,82.1,72.6,30.00,SSW,209,0.0,7.0,73,0.00,,---,0.06,VWS V14.00,2013-08-09 19:20:00,
2013-08-09 15:25:00,81.4,72.3,29.99,WSW,248,0.0,7.0,74,0.00,,---,0.06,VWS V14.00,2013-08-09 19:25:00,
2013-08-09 15:30:00,80.9,72.2,30.00,WSW,239,0.0,7.0,75,0.00,,---,0.06,VWS V14.00,2013-08-09 19:30:00,
2013-08-09 15:35:00,80.3,72.4,29.99,SE,137,0.0,7.0,77,0.00,,---,0.06,VWS V14.00,2013-08-09 19:35:00,
2013-08-09 15:40:00,79.8,72.3,29.99,SW,219,0.0,4.0,78,0.00,,---,0.06,VWS V14.00,2013-08-09 19:40:00,
2013-08-09 15:45:00,79.2,72.1,30.00,West,271,0.0,4.0,79,0.00,,---,0.06,VWS V14.00,2013-08-09 19:45:00,
2013-08-09 15:50:00,78.9,72.2,30.00,SSW,204,0.0,4.0,80,0.00,,---,0.06,VWS V14.00,2013-08-09 19:50:00,
2013-08-09 15:55:00,78.7,72.0,30.00,SE,140,0.0,5.0,80,0.00,,---,0.06,VWS V14.00,2013-08-09 19:55:00,
2013-08-09 16:00:00,78.3,72.0,30.00,ESE,103,0.0,5.0,81,0.00,,---,0.06,VWS V14.00,2013-08-09 20:00:00,
2013-08-09 16:05:00,78.2,71.9,30.00,SSW,198,0.0,5.0,81,0.00,,---,0.06,VWS V14.00,2013-08-09 20:05:00,
2013-08-09 16:10:00,78.4,72.8,30.00,SSW,198,0.0,0.0,83,0.00,,---,0.06,VWS V14.00,2013-08-09 20:10:00,
2013-08-09 16:15:00,79.2,72.9,29.99,SSW,198,0.0,1.0,81,0.00,,---,0.06,VWS V14.00,2013-08-09 20:15:00,
2013-08-09 16:20:00,79.8,71.6,29.99,SSW,200,0.0,1.0,76,0.00,,---,0.06,VWS V14.00,2013-08-09 20:20:00,
2013-08-09 16:25:00,80.7,74.0,29.99,SSW,200,0.0,1.0,80,0.00,,---,0.06,VWS V14.00,2013-08-09 20:25:00,
2013-08-09 16:30:00,81.1,74.0,29.99,SSW,200,0.0,1.0,79,0.00,,---,0.06,VWS V14.00,2013-08-09 20:30:00,
2013-08-09 16:35:00,81.5,73.6,29.99,SSW,200,0.0,1.0,77,0.00,,---,0.06,VWS V14.00,2013-08-09 20:35:00,
2013-08-09 16:40:00,81.8,73.5,29.99,SSW,200,0.0,0.0,76,0.00,,---,0.06,VWS V14.00,2013-08-09 20:40:00,
2013-08-09 16:45:00,82.1,73.0,29.99,SSW,200,0.0,0.0,74,0.00,,---,0.06,VWS V14.00,2013-08-09 20:45:00,
2013-08-09 16:50:00,82.4,73.3,29.98,SSW,192,0.0,1.0,74,0.00,,---,0.06,VWS V14.00,2013-08-09 20:50:00,
2013-08-09 16:55:00,82.7,74.0,29.99,SSW,192,0.0,1.0,75,0.00,,---,0.06,VWS V14.00,2013-08-09 20:55:00,
2013-08-09 17:00:00,82.8,74.5,29.99,SSW,192,0.0,1.0,76,0.00,,---,0.06,VWS V14.00,2013-08-09 21:00:00,
2013-08-09 17:05:00,82.9,73.8,29.98,West,264,0.0,1.0,74,0.00,,---,0.06,VWS V14.00,2013-08-09 21:05:00,
2013-08-09 17:10:00,83.0,73.5,29.98,West,265,0.0,1.0,73,0.00,,---,0.06,VWS V14.00,2013-08-09 21:10:00,
2013-08-09 17:15:00,83.2,75.2,29.98,West,265,0.0,1.0,77,0.00,,---,0.06,VWS V14.00,2013-08-09 21:15:00,
2013-08-09 17:20:00,83.2,74.8,29.98,West,264,0.0,1.0,76,0.00,,---,0.06,VWS V14.00,2013-08-09 21:20:00,
2013-08-09 17:25:00,83.4,74.2,29.98,West,264,0.0,1.0,74,0.00,,---,0.06,VWS V14.00,2013-08-09 21:25:00,
2013-08-09 17:30:00,83.4,75.1,29.98,WSW,254,0.0,1.0,76,0.00,,---,0.06,VWS V14.00,2013-08-09 21:30:00,
2013-08-09 17:35:00,83.6,74.8,29.98,WSW,254,0.0,1.0,75,0.00,,---,0.06,VWS V14.00,2013-08-09 21:35:00,
2013-08-09 17:40:00,83.7,74.5,29.98,WSW,254,0.0,0.0,74,0.00,,---,0.06,VWS V14.00,2013-08-09 21:40:00,
2013-08-09 17:45:00,83.7,74.5,29.98,West,259,0.0,2.0,74,0.00,,---,0.06,VWS V14.00,2013-08-09 21:45:00,
2013-08-09 17:50:00,83.7,74.9,29.97,West,259,0.0,2.0,75,0.00,,---,0.06,VWS V14.00,2013-08-09 21:50:00,
2013-08-09 17:55:00,83.7,74.5,29.97,West,259,0.0,2.0,74,0.00,,---,0.06,VWS V14.00,2013-08-09 21:55:00,
2013-08-09 18:00:00,83.6,74.4,29.97,West,259,0.0,2.0,74,0.00,,---,0.06,VWS V14.00,2013-08-09 22:00:00,
2013-08-09 18:05:00,83.4,73.8,29.97,West,259,0.0,2.0,73,0.00,,---,0.06,VWS V14.00,2013-08-09 22:05:00,
2013-08-09 18:10:00,83.1,74.0,29.98,West,259,0.0,0.0,74,0.00,,---,0.06,VWS V14.00,2013-08-09 22:10:00,
2013-08-09 18:15:00,82.7,74.0,29.97,West,259,0.0,0.0,75,0.00,,---,0.06,VWS V14.00,2013-08-09 22:15:00,
2013-08-09 18:20:00,82.1,73.8,29.98,West,259,0.0,0.0,76,0.00,,---,0.06,VWS V14.00,2013-08-09 22:20:00,
2013-08-09 18:25:00,81.2,72.5,29.98,West,260,0.0,2.0,75,0.00,,---,0.06,VWS V14.00,2013-08-09 22:25:00,
2013-08-09 18:30:00,80.4,71.4,29.99,West,260,0.0,2.0,74,0.00,,---,0.06,VWS V14.00,2013-08-09 22:30:00,
2013-08-09 18:35:00,79.8,71.9,29.99,West,260,0.0,2.0,77,0.00,,---,0.06,VWS V14.00,2013-08-09 22:35:00,
2013-08-09 18:40:00,79.1,71.7,29.99,West,260,0.0,0.0,78,0.00,,---,0.06,VWS V14.00,2013-08-09 22:40:00,
2013-08-09 18:45:00,78.5,71.4,29.99,West,260,0.0,1.0,79,0.00,,---,0.06,VWS V14.00,2013-08-09 22:45:00,
2013-08-09 18:50:00,77.9,70.9,30.00,West,260,0.0,1.0,79,0.00,,---,0.06,VWS V14.00,2013-08-09 22:50:00,
2013-08-09 18:55:00,77.5,71.2,30.00,West,260,0.0,3.0,81,0.00,,---,0.06,VWS V14.00,2013-08-09 22:55:00,
2013-08-09 19:00:00,77.0,70.7,30.00,West,260,1.0,3.0,81,0.00,,---,0.06,VWS V14.00,2013-08-09 23:00:00,
2013-08-09 19:05:00,76.6,70.7,30.00,West,260,0.0,3.0,82,0.00,,---,0.06,VWS V14.00,2013-08-09 23:05:00,
2013-08-09 19:10:00,76.3,70.8,30.01,West,260,0.0,0.0,83,0.00,,---,0.06,VWS V14.00,2013-08-09 23:10:00,
2013-08-09 19:15:00,76.1,70.9,30.01,West,260,0.0,0.0,84,0.00,,---,0.06,VWS V14.00,2013-08-09 23:15:00,
2013-08-09 19:20:00,75.9,70.7,30.01,West,260,0.0,0.0,84,0.00,,---,0.06,VWS V14.00,2013-08-09 23:20:00,
2013-08-09 19:25:00,75.8,71.0,30.01,West,260,0.0,1.0,85,0.00,,---,0.06,VWS V14.00,2013-08-09 23:25:00,
2013-08-09 19:30:00,75.6,71.1,30.01,West,260,0.0,1.0,86,0.00,,---,0.06,VWS V14.00,2013-08-09 23:30:00,
2013-08-09 19:35:00,75.5,71.0,30.01,West,260,0.0,1.0,86,0.00,,---,0.06,VWS V14.00,2013-08-09 23:35:00,
2013-08-09 19:40:00,75.3,70.8,30.01,SW,227,0.0,1.0,86,0.00,,---,0.06,VWS V14.00,2013-08-09 23:40:00,
2013-08-09 19:45:00,75.2,70.7,30.01,SW,227,0.0,1.0,86,0.00,,---,0.06,VWS V14.00,2013-08-09 23:45:00,
2013-08-09 19:50:00,75.1,71.0,30.02,SW,227,0.0,1.0,87,0.00,,---,0.06,VWS V14.00,2013-08-09 23:50:00,
2013-08-09 19:55:00,75.1,71.0,30.02,SW,226,0.0,1.0,87,0.00,,---,0.06,VWS V14.00,2013-08-09 23:55:00,
2013-08-09 20:00:00,75.0,70.9,30.02,SW,226,0.0,1.0,87,0.00,,---,0.06,VWS V14.00,2013-08-10 00:00:00,
2013-08-09 20:05:00,74.9,70.8,30.02,SW,227,0.0,1.0,87,0.00,,---,0.06,VWS V14.00,2013-08-10 00:05:00,
2013-08-09 20:10:00,74.8,71.0,30.02,SW,227,0.0,0.0,88,0.00,,---,0.06,VWS V14.00,2013-08-10 00:10:00,
2013-08-09 20:15:00,74.7,70.6,30.02,SW,227,0.0,0.0,87,0.00,,---,0.06,VWS V14.00,2013-08-10 00:15:00,
2013-08-09 20:20:00,74.6,70.8,30.02,SW,226,0.0,0.0,88,0.00,,---,0.06,VWS V14.00,2013-08-10 00:20:00,
2013-08-09 20:25:00,74.5,70.7,30.02,SW,227,0.0,1.0,88,0.00,,---,0.06,VWS V14.00,2013-08-10 00:25:00,
2013-08-09 20:30:00,74.4,70.9,30.02,SW,227,0.0,1.0,89,0.00,,---,0.06,VWS V14.00,2013-08-10 00:30:00,
2013-08-09 20:35:00,74.3,70.8,30.02,SW,227,0.0,1.0,89,0.00,,---,0.06,VWS V14.00,2013-08-10 00:35:00,
2013-08-09 20:40:00,74.2,71.1,30.03,SW,227,0.0,0.0,90,0.00,,---,0.06,VWS V14.00,2013-08-10 00:40:00,
2013-08-09 20:45:00,74.2,71.1,30.03,SW,226,0.0,0.0,90,0.00,,---,0.06,VWS V14.00,2013-08-10 00:45:00,
2013-08-09 20:50:00,74.1,71.0,30.03,SW,227,0.0,0.0,90,0.00,,---,0.06,VWS V14.00,2013-08-10 00:50:00,
2013-08-09 20:55:00,74.0,71.2,30.03,SW,227,0.0,0.0,91,0.00,,---,0.06,VWS V14.00,2013-08-10 00:55:00,
2013-08-09 21:00:00,73.9,71.1,30.03,SW,226,0.0,0.0,91,0.00,,---,0.06,VWS V14.00,2013-08-10 01:00:00,
2013-08-09 21:05:00,73.8,71.0,30.04,SW,226,0.0,0.0,91,0.00,,---,0.06,VWS V14.00,2013-08-10 01:05:00,
2013-08-09 21:10:00,73.7,71.2,30.04,SW,226,0.0,0.0,92,0.00,,---,0.06,VWS V14.00,2013-08-10 01:10:00,
2013-08-09 21:15:00,73.6,71.1,30.04,SW,227,0.0,0.0,92,0.00,,---,0.06,VWS V14.00,2013-08-10 01:15:00,
2013-08-09 21:20:00,73.5,71.0,30.05,SW,227,0.0,0.0,92,0.00,,---,0.06,VWS V14.00,2013-08-10 01:20:00,
2013-08-09 21:25:00,73.4,70.9,30.05,SW,226,0.0,0.0,92,0.00,,---,0.06,VWS V14.00,2013-08-10 01:25:00,
2013-08-09 21:30:00,73.3,70.8,30.05,SW,226,0.0,0.0,92,0.00,,---,0.06,VWS V14.00,2013-08-10 01:30:00,
2013-08-09 21:35:00,73.1,70.3,30.05,SW,226,0.0,1.0,91,0.00,,---,0.06,VWS V14.00,2013-08-10 01:35:00,
2013-08-09 21:40:00,73.1,70.3,30.05,SW,227,0.0,0.0,91,0.00,,---,0.06,VWS V14.00,2013-08-10 01:40:00,
2013-08-09 21:45:00,73.1,70.3,30.05,SW,227,0.0,0.0,91,0.00,,---,0.06,VWS V14.00,2013-08-10 01:45:00,
2013-08-09 21:50:00,73.1,70.3,30.05,SW,226,0.0,0.0,91,0.00,,---,0.06,VWS V14.00,2013-08-10 01:50:00,
2013-08-09 21:55:00,73.1,70.3,30.06,SW,227,0.0,0.0,91,0.00,,---,0.06,VWS V14.00,2013-08-10 01:55:00,
2013-08-09 22:00:00,73.1,70.3,30.06,SW,227,0.0,0.0,91,0.00,,---,0.06,VWS V14.00,2013-08-10 02:00:00,
2013-08-09 22:05:00,73.0,70.2,30.06,SW,226,0.0,0.0,91,0.00,,---,0.06,VWS V14.00,2013-08-10 02:05:00,
2013-08-09 22:10:00,73.0,70.2,30.06,SW,227,0.0,0.0,91,0.00,,---,0.06,VWS V14.00,2013-08-10 02:10:00,
2013-08-09 22:15:00,73.0,70.2,30.06,SW,227,0.0,0.0,91,0.00,,---,0.06,VWS V14.00,2013-08-10 02:15:00,
2013-08-09 22:20:00,73.0,70.2,30.06,SW,227,0.0,0.0,91,0.00,,---,0.06,VWS V14.00,2013-08-10 02:20:00,
2013-08-09 22:25:00,73.0,70.2,30.07,SW,226,0.0,1.0,91,0.00,,---,0.06,VWS V14.00,2013-08-10 02:25:00,
2013-08-09 22:30:00,73.0,70.2,30.07,SW,227,0.0,1.0,91,0.00,,---,0.06,VWS V14.00,2013-08-10 02:30:00,
2013-08-09 22:35:00,73.0,70.5,30.07,SW,227,0.0,1.0,92,0.00,,---,0.06,VWS V14.00,2013-08-10 02:35:00,
2013-08-09 22:40:00,73.0,70.5,30.07,SW,226,1.0,1.0,92,0.00,,---,0.06,VWS V14.00,2013-08-10 02:40:00,
2013-08-09 22:45:00,73.0,70.5,30.08,West,261,2.0,4.0,92,0.00,,---,0.06,VWS V14.00,2013-08-10 02:45:00,
2013-08-09 22:50:00,73.1,70.6,30.08,South,176,0.0,4.0,92,0.01,,---,0.07,VWS V14.00,2013-08-10 02:50:00,
2013-08-09 22:55:00,73.1,70.6,30.07,South,176,0.0,4.0,92,0.02,,---,0.08,VWS V14.00,2013-08-10 02:55:00,
2013-08-09 23:00:00,73.0,70.9,30.07,ENE,75,0.0,4.0,93,0.02,,---,0.08,VWS V14.00,2013-08-10 03:00:00,
2013-08-09 23:05:00,73.0,70.9,30.07,ENE,75,0.0,4.0,93,0.02,,---,0.08,VWS V14.00,2013-08-10 03:05:00,
2013-08-09 23:10:00,72.8,70.7,30.05,ENE,75,0.0,0.0,93,0.02,,---,0.08,VWS V14.00,2013-08-10 03:10:00,
2013-08-09 23:15:00,72.7,70.6,30.05,ENE,75,0.0,1.0,93,0.03,,---,0.09,VWS V14.00,2013-08-10 03:15:00,
2013-08-09 23:20:00,72.6,70.8,30.05,ENE,75,0.0,1.0,94,0.03,,---,0.09,VWS V14.00,2013-08-10 03:20:00,
2013-08-09 23:25:00,72.4,70.6,30.05,ENE,75,0.0,1.0,94,0.04,,---,0.10,VWS V14.00,2013-08-10 03:25:00,
2013-08-09 23:30:00,72.3,70.5,30.05,ENE,75,0.0,1.0,94,0.04,,---,0.10,VWS V14.00,2013-08-10 03:30:00,
2013-08-09 23:35:00,72.2,70.7,30.05,ENE,75,0.0,1.0,95,0.04,,---,0.10,VWS V14.00,2013-08-10 03:35:00,
2013-08-09 23:40:00,72.1,70.6,30.05,ENE,75,0.0,0.0,95,0.04,,---,0.10,VWS V14.00,2013-08-10 03:40:00,
2013-08-09 23:45:00,71.9,70.4,30.05,ENE,75,0.0,0.0,95,0.04,,---,0.10,VWS V14.00,2013-08-10 03:45:00,
2013-08-09 23:50:00,71.8,70.3,30.05,ENE,75,0.0,0.0,95,0.04,,---,0.10,VWS V14.00,2013-08-10 03:50:00,
2013-08-09 23:55:00,71.7,70.5,30.06,ENE,75,0.0,1.0,96,0.04,,---,0.10,VWS V14.00,2013-08-10 03:55:00,